TimeEST,TemperatureF,Dew PointF,Humidity,Sea Level PressureIn,VisibilityMPH,Wind Direction,Wind SpeedMPH,Gust SpeedMPH,PrecipitationIn,Events,Conditions,WindDirDegrees,DateUTC
12:15 AM,33.8,17.6,52,30.18,10.0,Calm,Calm,-,N/A,,Clear,0,2014-02-25 05:15:00
12:35 AM,33.8,14.0,44,30.18,10.0,Calm,Calm,-,N/A,,Mostly Cloudy,0,2014-02-25 05:35:00
12:55 AM,33.8,19.4,56,30.18,10.0,Calm,Calm,-,N/A,,Overcast,0,2014-02-25 05:55:00
1:15 AM,33.8,14.0,44,30.17,10.0,NW,4.6,-,N/A,,Overcast,310,2014-02-25 06:15:00
1:35 AM,35.6,14.0,41,30.17,10.0,NNW,5.8,-,N/A,,Overcast,330,2014-02-25 06:35:00
1:55 AM,33.8,15.8,48,30.17,10.0,NW,4.6,-,N/A,,Overcast,320,2014-02-25 06:55:00
2:15 AM,33.8,17.6,52,30.16,10.0,NW,3.5,-,N/A,,Overcast,320,2014-02-25 07:15:00
2:30 AM,33.8,19.4,56,30.15,10.0,Calm,Calm,-,N/A,,Overcast,0,2014-02-25 07:30:00
3:00 AM,33.8,19.4,56,30.14,10.0,West,3.5,-,N/A,,Overcast,280,2014-02-25 08:00:00
3:15 AM,33.8,19.4,56,30.13,10.0,Calm,Calm,-,N/A,,Overcast,0,2014-02-25 08:15:00
4:55 AM,33.8,17.6,52,30.13,10.0,NW,3.5,-,N/A,,Overcast,310,2014-02-25 09:55:00
5:15 AM,33.8,17.6,52,30.14,10.0,West,3.5,-,N/A,,Overcast,280,2014-02-25 10:15:00
5:35 AM,33.8,19.4,56,30.15,10.0,Calm,Calm,-,N/A,,Overcast,0,2014-02-25 10:35:00
5:55 AM,32.0,21.2,64,30.16,4.0,Calm,Calm,-,N/A,Snow,Light Snow,0,2014-02-25 10:55:00
6:15 AM,32.0,23.0,69,30.17,4.0,Calm,Calm,-,N/A,Snow,Light Snow,0,2014-02-25 11:15:00
6:35 AM,32.0,24.8,75,30.17,2.5,Calm,Calm,-,N/A,Snow,Light Snow,0,2014-02-25 11:35:00
6:55 AM,32.0,26.6,80,30.18,1.5,Calm,Calm,-,N/A,Snow,Light Snow,0,2014-02-25 11:55:00
7:15 AM,30.2,26.6,86,30.19,1.0,Calm,Calm,-,N/A,Snow,Snow,0,2014-02-25 12:15:00
7:35 AM,30.2,26.6,86,30.19,1.0,Calm,Calm,-,N/A,Snow,Light Snow,0,2014-02-25 12:35:00
7:55 AM,30.2,24.8,80,30.19,0.8,Calm,Calm,-,N/A,Snow,Light Snow,0,2014-02-25 12:55:00
8:15 AM,30.2,24.8,80,30.20,1.2,WNW,3.5,-,N/A,Snow,Light Snow,290,2014-02-25 13:15:00
8:35 AM,30.2,24.8,80,30.20,3.0,Calm,Calm,-,N/A,Snow,Light Snow,0,2014-02-25 13:35:00
8:55 AM,30.2,23.0,75,30.21,4.0,Calm,Calm,-,N/A,Snow,Light Snow,0,2014-02-25 13:55:00
9:15 AM,30.2,23.0,75,30.21,4.0,Calm,Calm,-,N/A,Snow,Light Snow,0,2014-02-25 14:15:00
9:35 AM,30.2,23.0,75,30.21,5.0,SW,3.5,-,N/A,Snow,Light Snow,230,2014-02-25 14:35:00
9:55 AM,32.0,23.0,69,30.21,7.0,SW,4.6,-,N/A,,Overcast,230,2014-02-25 14:55:00
10:15 AM,32.0,23.0,69,30.20,10.0,SW,4.6,-,N/A,,Overcast,230,2014-02-25 15:15:00
10:35 AM,32.0,26.6,80,30.20,10.0,SW,5.8,-,N/A,,Overcast,230,2014-02-25 15:35:00
10:55 AM,32.0,24.8,75,30.20,10.0,WSW,3.5,-,N/A,,Overcast,250,2014-02-25 15:55:00
11:15 AM,32.0,23.0,69,30.20,10.0,West,4.6,-,N/A,,Overcast,260,2014-02-25 16:15:00
11:35 AM,32.0,23.0,69,30.20,10.0,West,3.5,-,N/A,,Overcast,260,2014-02-25 16:35:00
11:50 AM,32.0,23.0,69,30.20,10.0,West,4.6,-,N/A,,Overcast,280,2014-02-25 16:50:00
12:20 PM,33.8,24.8,70,30.19,10.0,West,4.6,-,N/A,,Overcast,260,2014-02-25 17:20:00
12:35 PM,33.8,24.8,70,30.19,10.0,West,4.6,-,N/A,Snow,Light Snow,260,2014-02-25 17:35:00
12:55 PM,35.6,26.6,70,30.18,10.0,WNW,4.6,-,N/A,,Overcast,290,2014-02-25 17:55:00
1:15 PM,35.6,24.8,65,30.17,10.0,West,5.8,-,N/A,,Overcast,280,2014-02-25 18:15:00
1:35 PM,33.8,24.8,70,30.16,10.0,WSW,8.1,-,N/A,,Overcast,250,2014-02-25 18:35:00
1:55 PM,35.6,23.0,60,30.15,10.0,SW,6.9,-,N/A,,Overcast,230,2014-02-25 18:55:00
2:15 PM,35.6,23.0,60,30.14,10.0,West,6.9,-,N/A,,Overcast,270,2014-02-25 19:15:00
2:35 PM,35.6,23.0,60,30.14,10.0,West,5.8,-,N/A,,Overcast,260,2014-02-25 19:35:00
2:55 PM,35.6,21.2,56,30.13,10.0,West,5.8,-,N/A,,Overcast,260,2014-02-25 19:55:00
3:15 PM,35.6,23.0,60,30.13,10.0,WSW,8.1,-,N/A,,Overcast,240,2014-02-25 20:15:00
3:35 PM,39.2,21.2,49,30.12,10.0,West,6.9,-,N/A,,Overcast,280,2014-02-25 20:35:00
3:55 PM,35.6,19.4,52,30.11,10.0,WNW,5.8,-,N/A,,Overcast,300,2014-02-25 20:55:00
4:15 PM,35.6,19.4,52,30.12,10.0,WNW,4.6,-,N/A,,Overcast,300,2014-02-25 21:15:00
4:35 PM,35.6,19.4,52,30.11,10.0,West,3.5,-,N/A,,Overcast,270,2014-02-25 21:35:00
4:55 PM,35.6,19.4,52,30.10,10.0,Calm,Calm,-,N/A,,Overcast,0,2014-02-25 21:55:00
5:15 PM,35.6,19.4,52,30.10,10.0,West,4.6,-,N/A,,Mostly Cloudy,280,2014-02-25 22:15:00
5:35 PM,35.6,19.4,52,30.11,10.0,West,4.6,-,N/A,,Mostly Cloudy,260,2014-02-25 22:35:00
5:55 PM,35.6,19.4,52,30.11,10.0,WNW,3.5,-,N/A,,Scattered Clouds,300,2014-02-25 22:55:00
6:15 PM,33.8,19.4,56,30.10,10.0,West,4.6,-,N/A,,Scattered Clouds,270,2014-02-25 23:15:00
6:35 PM,33.8,21.2,60,30.10,10.0,Calm,Calm,-,N/A,,Clear,0,2014-02-25 23:35:00
6:55 PM,33.8,19.4,56,30.10,10.0,Calm,Calm,-,N/A,,Clear,0,2014-02-25 23:55:00
7:15 PM,33.8,19.4,56,30.10,10.0,Calm,Calm,-,N/A,,Clear,0,2014-02-26 00:15:00
7:35 PM,33.8,19.4,56,30.10,10.0,Calm,Calm,-,N/A,,Clear,0,2014-02-26 00:35:00
7:55 PM,33.8,21.2,60,30.09,10.0,Calm,Calm,-,N/A,,Clear,0,2014-02-26 00:55:00
8:15 PM,33.8,21.2,60,30.09,10.0,Calm,Calm,-,N/A,,Clear,0,2014-02-26 01:15:00
8:35 PM,33.8,21.2,60,30.08,10.0,Calm,Calm,-,N/A,,Clear,0,2014-02-26 01:35:00
8:55 PM,33.8,23.0,65,30.08,10.0,Calm,Calm,-,N/A,,Clear,0,2014-02-26 01:55:00
9:15 PM,32.0,23.0,69,30.08,10.0,Calm,Calm,-,N/A,,Clear,0,2014-02-26 02:15:00
9:35 PM,33.8,21.2,60,30.08,10.0,Calm,Calm,-,N/A,,Scattered Clouds,0,2014-02-26 02:35:00
9:55 PM,33.8,23.0,65,30.09,10.0,Calm,Calm,-,N/A,,Mostly Cloudy,0,2014-02-26 02:55:00
10:15 PM,33.8,21.2,60,30.08,10.0,Calm,Calm,-,N/A,,Overcast,0,2014-02-26 03:15:00
10:35 PM,33.8,21.2,60,30.08,10.0,Calm,Calm,-,N/A,,Overcast,0,2014-02-26 03:35:00
10:55 PM,33.8,21.2,60,30.08,10.0,West,3.5,-,N/A,,Overcast,270,2014-02-26 03:55:00
11:15 PM,33.8,21.2,60,30.07,10.0,Calm,Calm,-,N/A,,Overcast,0,2014-02-26 04:15:00
11:35 PM,33.8,21.2,60,30.06,10.0,WNW,3.5,-,N/A,,Overcast,290,2014-02-26 04:35:00
11:55 PM,33.8,23.0,65,30.05,10.0,WSW,3.5,-,N/A,,Overcast,240,2014-02-26 04:55:00